Tracking 23441 objects as of 15-Jun-2021
HD Live streaming from Space Station
objects crossing your sky now

LEMUR 2 YNDRD

Track LEMUR 2 YNDRD now!
10-day predictions
LEMUR 2 YNDRD is classified as:


NORAD ID: 44413
Int'l Code: 2019-038AD
Perigee: 517.8 km
Apogee: 548.3 km
Inclination: 97.6 °
Period: 95.2 minutes
Semi major axis: 6904 km
RCS: Unknown
Launch date: July 5, 2019
Source: United States (US)
Launch site: VOSTOCHNY COSMODROME (VOSTO)
aabbcc
Your satellite tracking list
Your tracking list is empty




NASA's NSSDC Master Catalog

Two Line Element Set (TLE):
1 44413U 19038AD  21165.83724774  .00001293  00000-0  75894-4 0  9996
2 44413  97.5836 129.9398 0022052 326.1233  33.8588 15.13379263107371
Source of the keplerian elements: AFSPC